Location: Albany
(35.0000°S, 118.0000°E)
Time: 03:09:09
(UTC-04:00)

Cosmos 1626 - Visible Passes

Search period start: 30 April 2016 00:00
Search period end: 10 May 2016 00:00
Orbit: 499 x 505 km, 82.5° (Epoch: 29 April)

Date Brightness Start Highest point End Pass type
(mag) Time Alt. Az. Time Alt. Az. Time Alt. Az.
30 Apr 3.5 06:21:41 10° NNW 06:25:18 42° W 06:28:58 10° S visible
30 Apr 5.1 16:19:22 10° SE 16:21:51 16° ESE 16:24:18 10° ENE visible
30 Apr 3.2 17:54:07 10° SW 17:57:14 24° W 18:00:19 10° NW visible
01 May 2.7 06:02:19 10° NNW 06:06:04 62° W 06:09:53 10° S visible
01 May 5.4 16:01:04 10° SE 16:02:32 12° ESE 16:04:00 10° E visible
01 May 2.8 17:35:27 15° SSW 17:38:05 34° W 17:41:32 10° NNW visible
02 May 2.3 17:18:27 46° WSW 17:18:56 49° W 17:22:34 10° NNW visible
03 May 3.2 17:01:15 34° N 17:01:15 34° N 17:03:30 10° N visible
04 May 4.7 16:43:50 13° N 16:43:50 13° N 16:44:17 10° N visible
05 May 5.3 06:22:46 10° WNW 06:24:48 14° WSW 06:26:50 10° SW visible
06 May 5.1 06:02:44 10° WNW 06:05:28 19° WSW 06:08:16 10° SSW visible
07 May 4.6 05:42:58 10° NW 05:46:11 26° WSW 05:49:27 10° SSW visible
